Location: St. Louis
(38.6270°N, 90.1994°W)
Time: 00:26:30
(UTC-06:00)

Vanguard 2 - Pass Details

Date: 05 December 2021
Orbit: 553 x 2936 km, 32.9° (Epoch: 16 January)

Event Time Altitude Azimuth Distance (km) Brightness Sun altitude
Rises 14:21:10 0° 257° (WSW) 2,921 11.3 19.6°
Reaches altitude 10° 14:23:11 10° 251° (WSW) 2,147 10.9 19.3°
Maximum altitude 14:27:55 50° 176° (S) 1,115 9.2 18.8°
Drops below altitude 10° 14:35:16 10° 103° (ESE) 3,306 10.6 17.9°
Sets 14:39:06 0° 99° (E) 4,687 11.2 17.4°
